Location: �perlecques
(50.8057°N, 2.1521°E)
Time: 19:06:09
(UTC+00:00)

Tiros 1 - Pass Details

Date: 09 August 2021
Orbit: 630 x 663 km, 48.4° (Epoch: 28 September)

Event Time Altitude Azimuth Distance (km) Brightness Sun altitude
Rises 16:23:04 0° 248° (WSW) 2,990 11.8 26.8°
Reaches altitude 10° 16:25:27 10° 245° (WSW) 2,077 11.3 26.4°
Maximum altitude 16:30:09 57° 167° (SSE) 776 7.9 25.7°
Drops below altitude 10° 16:34:50 10° 89° (E) 2,068 9.3 25.0°
Sets 16:37:11 0° 86° (E) 2,975 10.0 24.6°
